Location: Newark
(13.6797°N, 8.5297°E)
Time: 04:23:05
(UTC+00:00)

Altair - Pass Details

Date: 02 February 2020
Orbit: 1502 x 1682 km, 47.2° (Epoch: 19 February)

Event Time Altitude Azimuth Distance (km) Brightness Sun altitude
Rises 06:26:47 0° 278° (W) 4,809 9.4 7.0°
Reaches altitude 10° 06:32:06 10° 301° (WNW) 3,861 9.0 8.2°
Maximum altitude 06:36:50 14° 331° (NNW) 3,560 9.0 9.3°
Drops below altitude 10° 06:41:39 10° 0° (N) 3,915 9.5 10.4°
Sets 06:47:12 0° 24° (NNE) 4,922 10.2 11.6°
